FW3054 Weather Reports


Display with metric or nautical units.
time (UTC)temp
F
wind
direction
speed
MPH
gust
MPH
rain 1hr
in
rain 24hr
in
rain mn
in
humidity
%
barometer
mb
20260507183610 61 0.0 2.0 0.00 0.56 0.28 87 1011.5
20260507182522 61 0.0 2.0 0.00 0.56 0.28 86 1011.6
20260507181522 61 0.0 0.0 0.00 0.56 0.28 85 1011.9
20260507180522 62 0.0 2.0 0.00 0.56 0.28 83 1011.6
20260507175522 62 0.0 2.0 0.00 0.56 0.28 83 1011.7
20260507174522 63 0 1.0 2.0 0.00 0.56 0.28 83 1011.5
20260507173522 62 0.0 1.0 0.00 0.56 0.28 84 1011.3
20260507172522 62 0.0 2.0 0.00 0.56 0.28 85 1011.4
20260507171522 62 23 1.0 4.0 0.00 0.56 0.28 85 1011.5
20260507170522 62 0.0 3.0 0.00 0.56 0.28 86 1011.3
20260507165547 61 0.0 1.0 0.00 0.56 0.28 88 1011.2
20260507164522 61 23 1.0 4.0 0.00 0.56 0.28 88 1011.2
20260507163522 61 0.0 2.0 0.00 0.56 0.28 89 1011.1
20260507162522 61 0 1.0 5.0 0.00 0.56 0.28 89 1011.3
20260507161522 61 0 1.0 6.0 0.00 0.57 0.28 90 1011.4
20260507160547 61 0.0 3.0 0.00 0.58 0.28 90 1011.6
20260507155522 62 23 1.0 4.0 0.00 0.60 0.28 90 1011.5
20260507154522 62 0.0 1.0 0.00 0.61 0.28 87 1011.4
20260507153522 61 0.0 3.0 0.00 0.64 0.28 89 1011.3
20260507152522 62 0 2.0 3.0 0.00 0.69 0.28 82 1011.4
20260507151547 62 0.0 1.0 0.00 0.83 0.28 75 1011.2
20260507150522 61 0.0 0.0 0.00 0.85 0.28 73 1011.0
20260507145522 61 0.0 0.0 0.00 0.86 0.28 74 1011.0
20260507144522 61 0.0 0.0 0.00 0.87 0.28 75 1011.0
20260507143522 61 0.0 0.0 0.00 0.87 0.28 75 1011.0
20260507142522 61 0.0 0.0 0.00 0.87 0.28 74 1011.1
20260507141522 61 0.0 1.0 0.00 0.87 0.28 71 1011.5
20260507140613 61 0.0 1.0 0.00 0.87 0.28 70 1011.2
20260507135522 61 0.0 0.0 0.00 0.87 0.28 70 1011.2
20260507134522 61 0.0 0.0 0.00 0.87 0.28 70 1011.1
20260507133521 61 0.0 0.0 0.00 0.87 0.28 71 1011.4
20260507132522 61 0.0 0.0 0.00 0.87 0.28 70 1011.6
20260507131547 61 0.0 0.0 0.00 0.87 0.28 70 1011.4
20260507130547 60 0.0 0.0 0.00 0.87 0.28 70 1011.1
20260507125522 60 0.0 0.0 0.00 0.87 0.28 71 1011.1
20260507124522 60 0.0 1.0 0.00 0.87 0.28 71 1011.1
20260507123547 60 0.0 0.0 0.00 0.87 0.28 71 1011.1
20260507122522 60 0.0 0.0 0.01 0.87 0.28 71 1010.8
20260507121522 60 0.0 0.0 0.03 0.87 0.28 71 1010.5
20260507120521 59 0.0 0.0 0.06 0.87 0.28 72 1010.8
20260507115522 59 0.0 0.0 0.09 0.87 0.28 72 1011.1
20260507114521 59 0.0 0.0 0.12 0.87 0.28 73 1011.2
20260507113521 59 0.0 0.0 0.14 0.87 0.28 73 1011.5
20260507112522 59 0.0 0.0 0.15 0.86 0.27 73 1011.9
20260507111521 59 0.0 0.0 0.13 0.84 0.25 73 1012.1
20260507110521 59 0.0 1.0 0.10 0.81 0.22 73 1012.2
20260507105521 59 0.0 0.0 0.07 0.78 0.19 73 1012.3
20260507104522 59 0.0 0.0 0.04 0.75 0.16 73 1012.1
20260507103521 59 0.0 0.0 0.02 0.73 0.14 73 1011.2
20260507102521 59 0.0 0.0 0.00 0.71 0.12 74 1011.2
20260507101521 59 0.0 0.0 0.00 0.71 0.12 73 1011.1
20260507100521 60 0.0 0.0 0.00 0.71 0.12 73 1011.7
20260507095521 60 0.0 0.0 0.00 0.71 0.12 73 1011.6
20260507094521 60 0.0 0.0 0.00 0.71 0.12 73 1011.2
20260507093521 60 0.0 0.0 0.00 0.71 0.12 73 1011.0
20260507092521 60 0.0 0.0 0.00 0.71 0.12 73 1011.4
20260507091521 60 0.0 0.0 0.00 0.71 0.12 73 1011.4
20260507090521 60 0.0 0.0 0.00 0.71 0.12 74 1011.7
20260507085521 60 0.0 0.0 0.00 0.71 0.12 74 1011.5
20260507084522 60 0.0 0.0 0.00 0.71 0.12 74 1011.6
20260507083521 60 0.0 0.0 0.00 0.71 0.12 74 1011.5
20260507082521 60 0.0 0.0 0.00 0.71 0.12 74 1011.8
20260507081521 60 0.0 0.0 0.00 0.71 0.12 74 1011.5
20260507080521 60 0.0 0.0 0.00 0.71 0.12 73 1011.6
20260507075521 60 0.0 0.0 0.00 0.71 0.12 73 1011.7
20260507074547 60 0.0 0.0 0.01 0.71 0.12 73 1012.7
20260507073521 60 0.0 1.0 0.01 0.71 0.12 73 1011.8
20260507072521 60 0.0 0.0 0.01 0.71 0.12 74 1011.9
20260507071546 60 0.0 0.0 0.01 0.71 0.12 74 1011.9
20260507070521 60 0.0 0.0 0.01 0.71 0.12 74 1012.0
20260507065521 60 0.0 0.0 0.01 0.71 0.12 74 1011.9
20260507064611 61 0.0 0.0 0.00 0.70 0.11 74 1012.1
20260507063521 61 0.0 1.0 0.00 0.70 0.11 74 1012.2
20260507062521 61 0.0 0.0 0.00 0.70 0.11 74 1012.4
20260507061521 61 0.0 0.0 0.00 0.70 0.11 74 1012.6
20260507060521 61 0.0 1.0 0.01 0.70 0.11 74 1012.6
20260507055521 61 0.0 1.0 0.04 0.70 0.11 75 1012.6
20260507054521 61 0.0 0.0 0.06 0.70 0.11 74 1013.0
20260507053521 61 0.0 0.0 0.08 0.70 0.11 75 1013.2
20260507052521 61 0.0 0.0 0.09 0.70 0.11 75 1013.2
20260507051546 61 0.0 0.0 0.10 0.70 0.11 75 1013.2
20260507050521 61 0.0 0.0 0.10 0.69 0.10 75 1013.3
20260507045521 61 0.0 0.0 0.08 0.66 0.07 75 1014.0
20260507044521 61 0.0 0.0 0.07 0.64 0.05 75 1013.3
20260507043521 61 0.0 0.0 0.06 0.62 0.03 75 1013.5
20260507042521 61 0.0 0.0 0.05 0.61 0.02 75 1013.5
20260507041521 61 0.0 0.0 0.04 0.60 0.01 75 1013.3
20260507040521 61 0.0 0.0 0.03 0.59 0.00 75 1013.6
20260507035521 61 0.0 0.0 0.02 0.58 0.58 75 1013.4
20260507034521 61 0.0 0.0 0.01 0.57 0.57 76 1012.7
20260507033521 61 0.0 0.0 0.00 0.56 0.56 77 1013.3
20260507032521 61 0.0 0.0 0.00 0.56 0.56 78 1013.1
20260507031521 61 0.0 0.0 0.00 0.56 0.56 78 1013.3
20260507030521 61 0.0 0.0 0.00 0.56 0.56 78 1013.4
20260507025521 61 0.0 0.0 0.02 0.56 0.56 79 1013.7
20260507024521 61 0.0 0.0 0.04 0.56 0.56 79 1013.7
20260507023521 61 0.0 0.0 0.04 0.56 0.56 78 1013.4
20260507022521 61 0.0 0.0 0.04 0.56 0.56 79 1013.0
20260507021546 62 0.0 2.0 0.04 0.56 0.56 79 1012.9
20260507020521 62 135 1.0 2.0 0.04 0.56 0.56 81 1011.4
20260507015521 62 0.0 1.0 0.03 0.54 0.54 80 1015.3
20260507014522 62 0.0 0.0 0.01 0.52 0.52 81 1015.5
20260507013521 62 0.0 0.0 0.01 0.52 0.52 82 1014.5
20260507012521 62 0.0 0.0 0.03 0.52 0.52 82 1014.6
20260507011521 62 0.0 0.0 0.06 0.52 0.52 83 1014.1
20260507010521 62 0.0 0.0 0.07 0.52 0.52 83 1014.3
20260507005521 62 0.0 0.0 0.06 0.51 0.51 83 1014.5
20260507004521 62 0.0 0.0 0.06 0.51 0.51 84 1014.0
20260507003521 63 0.0 0.0 0.07 0.51 0.51 84 1013.8
20260507002546 63 0.0 0.0 0.09 0.49 0.49 84 1014.1
20260507001521 63 0.0 0.0 0.08 0.46 0.46 85 1013.7
20260507000520 63 0.0 0.0 0.09 0.45 0.45 87 1013.5
20260506235521 63 0.0 0.0 0.09 0.45 0.45 87 1012.9
20260506234521 64 0.0 0.0 0.09 0.45 0.45 87 1013.5
20260506233521 64 0.0 1.0 0.08 0.44 0.44 87 1013.4
20260506232521 64 0.0 0.0 0.04 0.40 0.40 88 1013.9
20260506231521 65 0.0 0.0 0.02 0.38 0.38 88 1013.9
20260506230521 65 0.0 0.0 0.00 0.36 0.36 88 1013.7
20260506225520 65 0.0 0.0 0.01 0.36 0.36 88 1013.8
20260506224546 65 0.0 0.0 0.03 0.36 0.36 89 1013.4
20260506223520 66 0.0 0.0 0.04 0.36 0.36 89 1013.6
20260506222545 66 0.0 1.0 0.04 0.36 0.36 89 1013.2
20260506221520 66 0.0 0.0 0.05 0.36 0.36 89 1012.9
20260506220520 67 0.0 0.0 0.05 0.36 0.36 88 1013.3
20260506215521 67 0.0 0.0 0.04 0.35 0.35 88 1013.1
20260506214520 68 0.0 0.0 0.02 0.33 0.33 87 1014.0
20260506213520 68 0.0 0.0 0.01 0.32 0.32 86 1014.5
20260506212521 69 0.0 0.0 0.01 0.32 0.32 85 1013.8
20260506211546 70 0.0 0.0 0.00 0.31 0.31 83 1014.0
20260506210521 71 0.0 0.0 0.00 0.31 0.31 81 1014.1
20260506205521 72 0.0 0.0 0.00 0.31 0.31 80 1014.5
20260506204611 72 0.0 1.0 0.00 0.31 0.31 77 1014.5
20260506203520 73 0.0 0.0 0.00 0.31 0.31 74 1014.4
20260506202520 73 0.0 1.0 0.00 0.31 0.31 73 1014.3
20260506201520 73 0.0 2.0 0.00 0.31 0.31 75 1014.3
20260506200545 73 23 1.0 3.0 0.00 0.31 0.31 77 1013.8
20260506195520 73 0.0 1.0 0.00 0.31 0.31 78 1013.8
20260506194520 73 0.0 1.0 0.00 0.31 0.31 76 1014.2
20260506193546 74 0.0 1.0 0.00 0.31 0.31 76 1013.6
20260506192520 74 0.0 0.0 0.00 0.31 0.31 76 1013.9
20260506191520 74 0.0 1.0 0.00 0.31 0.31 75 1014.1
20260506190520 74 0.0 1.0 0.00 0.31 0.31 75 1013.9
20260506185522 73 0.0 1.0 0.00 0.31 0.31 78 1014.0
20260506184522 72 0.0 0.0 0.00 0.31 0.31 79 1013.8